Torna al catalogo

INTELSAT 4A-F6

AttivoComunicazioniGEO
NORAD 10778·PAYLOAD· XX

Lanciato Mar 31, 1978 da Cape Canaveral Space Force Station

Loading…

TLE

AggiornatoSource: Space-Track

Epoca: Sep 14, 2026, 12:42 UTC

1 10778U 78035A   26257.52963537 -.00000357  00000-0  00000+0 0  9993
2 10778   8.6063 311.1392 0008450 307.9042  55.2621  1.00219807123061

Traccia INTELSAT 4A-F6 in tempo reale con AllMySat

Download on the App Store